GW1724 Weather Reports


time (UTC)temp
C
wind
direction
speed
KPH
gust
KPH
rain 1hr
cm
rain 24hr
cm
rain mn
cm
humidity
%
barometer
mb
20260505053036 16 257 1.6 14.5 0.00 0.00 0.00 62 1012.7
20260505051538 16 298 3.2 8.0 0.00 0.00 0.00 62 1012.7
20260505041545 15 0 0.0 4.8 0.00 0.00 0.00 60 1012.5
20260505040044 15 0 0.0 0.0 0.00 0.00 0.00 60 1012.4
20260505034537 15 0 0.0 0.0 0.00 0.00 0.00 59 1012.3
20260505033036 16 0 0.0 0.0 0.00 0.00 0.00 58 1012.3
20260505031553 16 0 0.0 0.0 0.00 0.00 0.00 57 1012.3
20260505030035 16 0 0.0 0.0 0.00 0.00 0.00 55 1012.2
20260505024541 16 0 0.0 0.0 0.00 0.00 0.00 55 1012.2
20260505023035 16 0 0.0 0.0 0.00 0.00 0.00 55 1012.2
20260505021542 17 0 0.0 0.0 0.00 0.00 0.00 54 1012.3
20260505020035 17 0 0.0 0.0 0.00 0.00 0.00 53 1012.1
20260505014537 17 0 0.0 0.0 0.00 0.00 0.00 52 1012.0
20260505013038 18 0 0.0 0.0 0.00 0.00 0.00 49 1011.8
20260505011537 18 0 0.0 0.0 0.00 0.00 0.00 49 1011.9
20260505010036 18 0 0.0 0.0 0.00 0.00 0.00 47 1011.6
20260505004548 19 0 0.0 1.6 0.00 0.00 0.00 44 1011.6
20260505003035 20 0 0.0 9.7 0.00 0.00 0.00 42 1011.5
20260505001537 20 0 0.0 4.8 0.00 0.00 0.00 41 1011.6
20260505000055 21 222 1.6 6.4 0.00 0.00 0.00 40 1011.2
20260504234535 21 276 1.6 11.3 0.00 0.00 0.00 40 1011.2
20260504233035 22 0 0.0 1.6 0.00 0.00 0.00 39 1011.0
20260504231539 22 0 0.0 4.8 0.00 0.00 0.00 37 1011.1
20260504230048 23 230 1.6 9.7 0.00 0.00 0.00 35 1011.1
20260504224536 23 265 4.8 12.9 0.00 0.00 0.00 33 1011.0
20260504223036 24 260 3.2 12.9 0.00 0.00 0.00 33 1011.0
20260504221549 24 254 6.4 17.7 0.00 0.00 0.00 32 1011.1
20260504220040 24 225 8.0 17.7 0.00 0.00 0.00 32 1011.3
20260504214537 24 321 4.8 17.7 0.00 0.00 0.00 32 1011.3
20260504213043 24 242 4.8 16.1 0.00 0.00 0.00 31 1011.3
20260504211538 24 257 11.3 30.6 0.00 0.00 0.00 30 1011.4
20260504210047 24 252 4.8 17.7 0.00 0.00 0.00 31 1011.3
20260504204541 24 230 4.8 19.3 0.00 0.00 0.00 31 1011.4
20260504203042 25 263 9.7 19.3 0.00 0.00 0.00 29 1011.3
20260504201537 25 267 6.4 20.9 0.00 0.00 0.00 29 1011.4
20260504200036 24 269 8.0 16.1 0.00 0.00 0.00 30 1011.6
20260504194543 23 269 6.4 20.9 0.00 0.00 0.00 29 1011.8
20260504193041 25 257 8.0 25.7 0.00 0.00 0.00 29 1012.0
20260504191541 24 240 8.0 19.3 0.00 0.00 0.00 27 1012.1
20260504190038 24 303 6.4 20.9 0.00 0.00 0.00 27 1012.2
20260504184536 23 221 11.3 25.7 0.00 0.00 0.00 29 1012.7
20260504183034 24 290 9.7 19.3 0.00 0.00 0.00 28 1012.7
20260504181542 23 288 8.0 19.3 0.00 0.00 0.00 29 1013.1
20260504180041 23 234 4.8 19.3 0.00 0.00 0.00 30 1013.2
20260504174536 23 228 8.0 25.7 0.00 0.00 0.00 29 1013.4
20260504173045 23 273 4.8 14.5 0.00 0.00 0.00 31 1013.5
20260504171535 22 296 9.7 22.5 0.00 0.00 0.00 31 1013.8
20260504081537 10 260 0.0 4.8 0.00 0.00 0.00 73 1016.3